Location: Ostrava
(49.8330°N, 18.2830°E)
Time: 21:10:56
(UTC+02:00)

Cosmos 2221 - Visible Passes

Search period start: 24 June 2017 00:00
Search period end: 04 July 2017 00:00
Orbit: 594 x 617 km, 82.5° (Epoch: 23 June)

Date Brightness Start Highest point End Pass type
(mag) Time Alt. Az. Time Alt. Az. Time Alt. Az.
24 Jun 4.2 22:10:49 10° NNW 22:14:41 31° W 22:18:32 10° SSW visible
25 Jun 4.9 22:24:20 10° NW 22:27:34 20° W 22:30:46 10° SW visible
26 Jun 5.3 22:38:19 10° NW 22:40:22 13° W 22:42:25 10° WSW visible
29 Jun 4.6 21:38:39 10° NNW 21:42:22 27° W 21:46:04 10° SSW visible
30 Jun 5.2 21:52:16 10° NW 21:55:13 18° W 21:58:09 10° SW visible
01 Jul 5.5 22:06:34 10° WNW 22:08:00 11° W 22:09:26 10° W visible
